DMSP 5D-2 F11 DEB, 28307

Orbit data source: Space-Track

DMSP 5D-2 F11 DEB, 28307 is space debris in SSO originally from a launch on Thu, 28 Nov 1991 UTC launched from the Air Force Western Test Range (AFWTR). Debris objects in space refer to the collection of defunct objects orbiting the Earth. Examples of debris include non-operational satellites, rocket bodies, and fragments generated from explosions, collisions, or faulty payload assembly.

Loading next visibility...
Identifier
28307, 1991-082U
Orbit
SSO
Country
Flag of USUS
Related business
Manufacturer
Unknown
Mission
Spacecraft
Bus & Motor
Unknown
Mass
Unknown
Launch date (UTC)
1991-11-28 (35 years ago)
Launch vehicle
Unknown
Launch site
Air Force Western Test Range (AFWTR)
Object type
Payload
Rocket body
Debris
Shape & HBR
Unknown shape, 0.2 m
Radar Cross Section
Medium (>0.1 m² and <1 m²)

Expand to show TLE details & history
Last TLE update: 1 day ago

TLE from 1 day ago
0 DMSP 5D-2 F11 DEB
1 28307U 91082U   26208.04677149  .00000138  00000-0  10058-3 0  9995
2 28307  98.7780 245.4933 0039721 101.3000 289.0239 14.10473798145409
Epoch: 2026-07-27T01:07Z
TLE epoch observation values (Epoch: 2026-07-27T01:07:21.056Z)
Latitude
29.55768°
Longitude
-81.07759°
Altitude
852.149 km
Speed
7.434 km/s
True Right ascension
16h 01m 59s
True Declination
29° 24' 44"
Sunlit
Object was in daylight at epoch
Visualization orbit readout
Latitude
Unknown
Longitude
Unknown
Altitude
Unknown
Speed
Unknown
Apparent Right ascension
Unknown
Apparent Declination
Unknown
Sunlit
N/A
Visualization observer readout
Local Sidereal Time
19:40:37
Azimuth
Unknown
Elevation
Unknown
Doppler factor
Unknown
Orbital elements
Apogee altitude
883.656 km
Perigee altitude
826.195 km
Semi-major axis
7,233.062 km
Eccentricity
0.00397
Inclination
98.778°
RAAN
245.4933°
Arg. of periapsis
101.3°
True anomaly
288.5929°
Mean anomaly
289.0239°
Eccentric anomaly
288.80847°
Mean motion
3.52825 °/min
Orbital period
102.03 mins
BSTAR
0.00010058
Loading maneuver chart data...
Computing Atmospheric mass density...

Documentation

Showing up to 5 results
|